Weather History for Provo, UT

Change the Weather History Date:

Friday, May 4, 2012

  Actual Average Record
Temperature  
Mean Temperature 58 °F -  
Max Temperature 71 °F 64 °F 86 °F (2000)
Min Temperature 46 °F 40 °F 35 °F (1991)
Degree Days  
Heating Degree Days 6    
Growing Degree Days 8 (Base 50)    
Moisture  
Dew Point 42 °F    
Average Humidity 59    
Maximum Humidity 76    
Minimum Humidity 27    
Precipitation  
Precipitation 0.00 in - - ()
Sea Level Pressure  
Sea Level Pressure 29.93 in    
Wind  
Wind Speed 6 mph (NW)    
Max Wind Speed 18 mph    
Max Gust Speed 18 mph    
Visibility 12 miles    
Events      
Averages and records for this station are not official NWS values.
T = Trace of Precipitation, MM = Missing Value Source: NWS Daily Summary

Daily Weather History Graph

Daily Weather History Graph

Search for Another Location

Airport:

Trip Planner

Search our weather history database for the weather conditions in past years. The results will help you decide how hot, cold, wet, or windy it might be!

Date:

Astronomy

May. 04, 2012 Rise Set
Actual Time 6:22 AM MDT 8:25 PM MDT
Civil Twilight 5:52 AM MDT 8:55 PM MDT
Nautical Twilight 5:16 AM MDT 9:32 PM MDT
Astronomical Twilight 4:36 AM MDT 10:11 PM MDT
Moon 7:08 PM MDT (5/4) 5:05 AM MDT (5/4)
Length of Visible Light 15h 03m
Length of Day
14h 03m
Waxing Gibbous, 97% of the Moon is Illuminated
May 4
Waxing Gibbous
May 5
Full
May 12
Last Quarter
May 20
New
May 28
First Quarter

Hourly Weather History & Observations

Time (MDT) Temp. Dew Point Humidity Pressure Visibility Wind Dir Wind Speed Gust Speed Precip Events Conditions
12:15 AM 57.2 °F 39.2 °F 51% 29.90 in 10.0 mi North 3.5 mph - N/A   Clear
12:35 AM 57.2 °F 39.2 °F 51% 29.91 in 10.0 mi Calm Calm - N/A   Mostly Cloudy
1:15 AM 55.4 °F 41.0 °F 58% 29.91 in 10.0 mi Calm Calm - N/A   Scattered Clouds
1:35 AM 55.4 °F 41.0 °F 58% 29.91 in 10.0 mi NW 5.8 mph - N/A   Mostly Cloudy
1:55 AM 57.2 °F 42.8 °F 59% 29.91 in 10.0 mi NW 15.0 mph - N/A   Overcast
2:15 AM 57.2 °F 42.8 °F 59% 29.91 in 10.0 mi NW 12.7 mph - N/A   Overcast
2:35 AM 57.2 °F 42.8 °F 59% 29.91 in 10.0 mi NNW 10.4 mph - N/A   Scattered Clouds
3:15 AM 55.4 °F 42.8 °F 63% 29.91 in 10.0 mi NW 8.1 mph - N/A   Partly Cloudy
3:35 AM 53.6 °F 41.0 °F 62% 29.91 in 10.0 mi NW 5.8 mph - N/A   Clear
3:55 AM 50.0 °F 42.8 °F 76% 29.92 in 10.0 mi East 3.5 mph - N/A   Clear
4:15 AM 48.2 °F 39.2 °F 71% 29.92 in 10.0 mi East 4.6 mph - N/A   Clear
4:35 AM 48.2 °F 41.0 °F 76% 29.92 in 10.0 mi Calm Calm - N/A   Clear
5:15 AM 48.2 °F 41.0 °F 76% 29.93 in 10.0 mi Calm Calm - N/A   Clear
5:35 AM 46.4 °F 39.2 °F 76% 29.94 in 10.0 mi Calm Calm - N/A   Clear
5:55 AM 50.0 °F 42.8 °F 76% 29.94 in 10.0 mi WNW 5.8 mph - N/A   Clear
6:15 AM 51.8 °F 42.8 °F 71% 29.94 in 10.0 mi NNW 9.2 mph - N/A   Clear
6:35 AM 51.8 °F 42.8 °F 71% 29.94 in 10.0 mi NW 12.7 mph - N/A   Clear
6:49 AM 51.8 °F 42.8 °F 71% 29.96 in 15.0 mi WNW 10.4 mph - N/A   Partly Cloudy
7:50 AM 55.4 °F 42.8 °F 63% 29.99 in 15.0 mi WNW 9.2 mph - N/A   Partly Cloudy
8:50 AM 55.4 °F 42.8 °F 63% 30.00 in 15.0 mi West 8.1 mph - N/A   Partly Cloudy
9:50 AM 57.2 °F 39.2 °F 51% 30.01 in 15.0 mi WNW 8.1 mph - N/A   Partly Cloudy
10:47 AM 60.8 °F 41.0 °F 48% 30.01 in 15.0 mi NNW 3.5 mph - N/A   Partly Cloudy
11:50 AM 62.6 °F 41.0 °F 45% 30.00 in 15.0 mi WNW 9.2 mph - N/A   Partly Cloudy
12:47 PM 64.4 °F 39.2 °F 40% 29.99 in 15.0 mi Calm Calm - N/A   Partly Cloudy
1:51 PM 69.8 °F 35.6 °F 28% 29.96 in 15.0 mi WNW 4.6 mph - N/A   Partly Cloudy
3:50 PM 71.6 °F 35.6 °F 27% 29.92 in 15.0 mi Variable 5.8 mph - N/A   Mostly Cloudy
4:50 PM 69.8 °F 46.4 °F 43% 29.91 in 15.0 mi WNW 18.4 mph - N/A   Mostly Cloudy
7:50 PM 62.6 °F 46.4 °F 55% 29.88 in 15.0 mi WNW 13.8 mph - N/A   Mostly Cloudy
8:50 PM 62.6 °F 44.6 °F 52% 29.88 in 15.0 mi WNW 11.5 mph - N/A   Mostly Cloudy
9:15 PM 60.8 °F 46.4 °F 59% 29.89 in 10.0 mi WNW 15.0 mph 18.4 mph N/A   Partly Cloudy
9:35 PM 60.8 °F 42.8 °F 52% 29.90 in 10.0 mi NNW 11.5 mph - N/A   Clear
9:55 PM 60.8 °F 46.4 °F 59% 29.91 in 10.0 mi NNW 3.5 mph - N/A   Clear
10:15 PM 57.2 °F 44.6 °F 63% 29.92 in 10.0 mi North 6.9 mph - N/A   Clear
10:35 PM 59.0 °F 41.0 °F 51% 29.92 in 10.0 mi NNW 6.9 mph - N/A   Clear
10:55 PM 57.2 °F 42.8 °F 59% 29.92 in 10.0 mi Calm Calm - N/A   Clear
11:15 PM 53.6 °F 42.8 °F 67% 29.91 in 10.0 mi East 8.1 mph - N/A   Clear
11:35 PM 55.4 °F 46.4 °F 72% 29.91 in 10.0 mi SSE 9.2 mph - N/A   Clear
11:55 PM 53.6 °F 44.6 °F 72% 29.91 in 10.0 mi SSE 5.8 mph - N/A   Clear